实时搜索PubMed

支持全中文、全英文、中英文混合搜索

中英文双语显示全部文献标题及摘要

显示期刊影响因子与特征因子

准确易用地指定影响因子范围

同时给出百度翻译与谷歌翻译结果

支持全部PubMed搜索布尔运算符及括号

显示原始关键字、转化关键字和执行关键字

支持出版年份、文献类型和物种类别查询

显示PubMed错误提示信息


PubMed中文版

最近热搜

排名 关键字 访问次数 日期时间
21 免疫电镜 15 2022-06-02 21:27:13
22 结直肠腺瘤伴黏膜下层假性侵润 15 2022-05-29 10:12:51
23 脂肪肝 15 2022-06-04 12:48:59
24 蓝斑 14 2022-06-25 08:39:28
25 迷走神经刺激 14 2022-06-28 10:56:02
26 糖尿病 14 2022-05-30 13:57:25
27 针灸 13 2022-05-28 19:26:38
28 truscreen or 宫颈癌筛查 13 2022-06-26 19:33:11
29 肥胖大鼠 13 2022-05-31 13:44:22
30 embryo 12 2022-06-11 17:25:10
31 风湿 12 2022-06-15 20:56:05
32 门静脉高压食管胃静脉曲张出血治疗 11 2022-06-15 11:43:58
33 钙离子与凝血 11 2022-06-14 08:46:21
34 Evaluation of antimicrobial peptide LL-37 for treatment of Staphylococcus aureus biofilm on titanium plate 11 2022-06-02 17:25:07
35 肺癌 10 2022-06-22 17:28:26
36 鼻病毒 9 2022-06-02 21:08:19
37 社区护士 9 2022-06-14 13:14:14
38 胃癌 9 2022-05-30 13:16:47
39 aptamer 9 2022-06-22 16:50:40
40 腺样体肥大变应性鼻炎 9 2022-05-31 08:54:18

热读文献

排名 文献标题 近期访问 日期时间
21 TruScreen、LBC试验和HPV试验对宫颈病变检出率的比较:一项基于中国农村宫颈癌人群筛查的现实研究。 14 2022-06-28 12:52:20
22 肝移植不会增加乳腺癌手术患者的发病率或死亡率。 14 2022-06-28 01:39:24
23 凝血酶和胶原刺激的CHRF-288-11细胞中Rac1和Cdc42激活的调节。 14 2022-06-28 07:30:36
24 随动载荷对颈椎活动范围、小关节力和椎间盘内压的影响:一项有限元研究。 14 2022-06-28 07:33:09
25 操纵合成的光生气味揭示了嗅觉感知的编码逻辑。 14 2022-06-28 07:33:50
26 nivolumab致严重输液反应1例。 14 2022-06-28 07:34:40
27 TruScreen检测2019冠状病毒疾病大流行期间高危人乳头瘤病毒感染妇女的宫颈组织。 13 2022-06-28 07:37:32
28 N-乙酰半胱氨酸在肝移植中的临床应用:氧化应激和炎症作为治疗靶点的意义。 13 2022-06-28 07:38:07
29 Camrelizumab治疗复发或转移性鼻咽癌的疗效、安全性和生物标志物分析(CAPTAIN研究)。 13 2022-06-28 07:41:49
30 脑肿瘤切除术中术前血红蛋白与输血实际需要:一项回顾性队列研究。 13 2022-06-28 07:37:44
31 以自发性高血压大鼠下丘脑神经递质代谢为靶点破译异钩藤碱抗高血压作用的机制。 13 2022-06-28 07:32:40
32 钩藤属植物化学成分对人羧酸酯酶2的抑制作用:动力学和相互作用机理与对接模拟相结合。 13 2022-06-28 07:27:16
33 女性雄激素:雄激素介导的皮肤病和患者评价。 13 2022-06-28 07:36:56
34 红景天产品的真实性和质量。 13 2022-06-28 07:32:57
35 铜绿微囊藻BCCUSP 232对大麦秸秆降解提取物及其组分的反应。 12 2022-06-28 07:34:52
36 右美托咪定与其他镇静剂对重症机械通气成人的疗效比较:一项随机试验的系统评价和荟萃分析。 12 2022-06-28 07:43:16
37 肝细胞癌肝移植前的桥接治疗:放射栓塞还是经动脉化疗栓塞? 12 2022-06-28 07:43:12
38 肝移植后心血管事件:MACE伤害。 12 2022-06-28 10:38:36
39 活体肝移植后儿童脱发。 12 2022-06-28 07:34:16
40 Camrelizumab联合阿替尼治疗广泛期SCLC(PASSION):一项多中心、两阶段、2期试验。 12 2022-06-28 07:37:01

最近搜索

ID 关键字 检索数量 日期时间
1049 颈椎有限元 424 2022-06-28 07:47:53
1048 倪林颖与孟庆刚 1 2022-06-28 01:15:54
1047 肺功能 34763 2022-06-28 00:16:24
1046 lag-3 166 2022-06-27 23:09:20
1045 痛经 7842 2022-06-27 20:58:41
1044 痛经的文献 581 2022-06-27 20:56:31
1043 黄芪 1182 2022-06-27 17:50:43
1042 血管内皮通透因子与血液透析 53 2022-06-27 14:54:22
1041 血小板流式检测 34 2022-06-27 12:59:57
1040 血小板 295409 2022-06-27 12:59:39
1039 Influence of different proton pump inhibitors on the pharmacokinetics of voriconazole. 2 2022-06-27 12:33:38
1038 TCT与阴道镜活检分析 15 2022-06-27 11:12:57
1037 DCLk1 394 2022-06-27 11:03:08
1036 过敏 肺炎 免疫机制 5 2022-06-27 10:35:21
1035 非酒精性脂肪肝 14107 2022-06-27 10:31:43
1034 髌骨不稳 1181 2022-06-27 09:33:16
1033 鸡蛋 37 2022-06-26 23:02:04
1032 35300031 1 2022-06-26 22:54:21
1031 35533455 1 2022-06-26 22:52:52
1030 TruScreen 16 2022-06-26 22:09:45